GFSMW_250_rhum_030.txt.gz
RH
100 100 100 100 100 100 100 100 100 100 100 100 100 100 100 100 100 100 93 100 100 98 88 97 89 71 63 54 51 50 44 38 34 30 29 33 34 35 38 43 46 46 44
100 100 100 93 100 95 99 100 100 100 80 78 86 99 96 93 98 99 93 86 77 82 87 73 72 58 42 46 43 40 39 34 28 30 37 34 36 45 48 47 45 42 42
100 94 100 86 100 100 98 69 83 73 74 72 72 65 68 71 68 72 72 72 70 88 80 65 51 42 39 45 42 43 45 38 35 38 41 43 47 46 47 50 49 47 47
72 98 100 96 81 100 94 100 100 98 76 66 64 57 66 63 66 77 87 83 75 62 55 50 46 49 43 43 52 52 49 42 47 49 48 52 53 54 52 46 49 53 50
92 90 79 90 90 96 99 99 99 95 90 88 91 86 80 76 67 62 53 58 52 51 49 60 66 60 53 55 60 58 59 54 46 50 56 59 53 57 55 52 46 43 50
81 71 67 74 66 64 65 64 58 62 59 54 54 62 72 68 78 72 63 51 48 59 77 65 62 53 52 54 62 55 45 45 52 54 49 47 54 55 53 52 54 56 53
84 81 100 92 74 71 66 60 60 61 67 72 69 64 69 61 53 72 73 85 67 85 88 57 60 46 52 57 48 54 66 54 54 51 53 58 57 56 58 57 55 53 54
98 88 70 71 83 78 85 83 77 75 70 75 67 57 60 76 98 100 100 100 100 100 98 67 68 83 98 84 86 71 60 60 56 61 62 62 65 56 60 58 51 66 70
82 78 67 74 77 87 99 97 79 58 53 62 70 78 100 100 100 100 100 100 87 76 100 100 100 100 100 96 79 74 68 61 63 63 69 64 58 62 63 56 63 66 61
90 80 76 66 66 74 76 72 59 57 59 69 82 93 99 94 100 100 98 99 100 100 96 100 100 100 81 72 68 62 61 68 70 68 67 60 69 68 62 70 70 61 62
95 83 86 73 68 71 56 45 57 79 93 70 69 78 74 82 92 100 100 100 100 100 100 100 96 90 82 86 74 71 78 74 77 77 74 69 71 68 74 73 68 68 61
88 96 93 97 98 86 59 38 61 69 69 73 76 74 79 76 100 100 100 100 100 100 100 94 86 84 93 92 91 87 88 80 77 73 69 69 73 72 72 74 72 66 62
84 85 91 100 100 92 57 72 78 65 79 80 72 73 99 100 100 100 100 98 93 91 80 74 72 79 96 84 82 87 89 95 96 89 79 85 78 75 81 74 73 67 66
75 76 87 97 100 78 92 100 84 78 78 78 77 90 91 99 99 100 97 90 80 72 63 76 87 98 90 92 98 94 93 93 89 82 86 83 83 89 78 74 75 72 63
51 46 58 91 99 98 93 74 74 76 83 84 84 78 82 90 94 87 82 79 70 67 89 96 95 94 91 100 95 94 85 72 75 84 84 80 89 82 79 80 73 66 50
68 74 80 81 100 90 68 59 59 81 89 92 92 92 93 89 84 81 80 76 77 95 99 100 98 100 100 100 94 80 77 83 87 86 89 92 88 87 82 72 67 57 35
98 93 88 67 61 68 43 40 62 80 92 96 97 99 97 92 88 82 80 95 100 100 100 99 100 100 99 92 83 85 84 90 90 92 94 90 92 85 73 66 57 40 30
83 87 73 58 46 40 42 47 47 65 90 97 95 89 86 90 92 92 100 100 97 93 98 100 100 96 87 83 79 79 89 94 96 96 94 94 89 77 68 52 42 32 22
64 66 68 67 65 60 56 59 65 70 78 88 93 96 100 98 99 100 100 95 90 97 100 98 91 85 82 75 77 86 92 100 100 89 98 89 75 64 56 40 32 22 12
68 71 83 80 66 63 73 87 90 93 97 98 97 93 94 98 100 90 84 91 94 92 92 87 84 80 79 90 92 97 100 95 90 97 90 82 71 45 36 30 23 13 7
100 86 74 77 76 81 87 86 88 94 93 92 93 94 88 79 84 90 86 87 85 76 76 83 96 100 100 96 93 95 91 88 93 86 80 61 42 35 27 18 12 8 5
80 56 51 52 53 59 62 67 74 81 86 87 82 79 82 84 85 86 83 79 84 96 100 99 90 83 87 91 91 92 84 79 68 65 49 37 32 26 15 10 7 5 4
78 74 74 74 72 74 71 66 66 72 81 88 88 84 84 92 91 83 86 94 93 85 82 82 84 88 86 88 90 89 84 70 50 35 32 28 20 13 8 6 5 5 5
96 90 88 86 86 85 85 85 84 82 87 95 96 89 77 74 83 85 84 81 81 82 80 81 84 92 91 84 76 66 57 46 40 38 32 20 11 8 6 4 5 5 5
90 94 94 90 88 88 88 91 94 97 87 78 75 74 79 88 90 90 85 88 93 86 85 90 85 80 70 55 49 42 38 37 36 26 17 11 8 5 5 5 5 4 4
77 84 92 93 90 87 85 82 80 74 66 67 69 72 79 77 82 89 90 95 92 91 81 70 61 49 42 37 36 33 30 24 15 10 6 5 5 5 5 4 3 3 3

GFSMW_250_rhum_033.txt.gz
RH
100 100 100 97 100 100 100 100 100 100 92 100 100 100 100 100 100 100 100 100 100 100 100 100 82 100 100 91 76 75 66 53 47 44 44 40 42 41 47 42 42 44 47
97 97 100 100 99 80 98 100 100 100 100 95 90 98 100 100 98 100 100 100 100 99 99 99 98 91 87 79 72 58 51 45 44 44 38 34 28 26 47 48 48 50 50
100 100 100 100 100 100 90 64 88 100 100 100 100 100 97 94 94 97 96 96 91 89 86 79 74 74 68 66 60 53 51 56 57 50 38 37 39 33 31 35 52 49 50
97 84 100 94 100 100 100 100 100 95 77 64 62 43 44 45 48 59 66 66 58 62 68 62 62 56 49 54 57 59 66 58 44 41 41 41 40 45 47 45 48 47 50
100 99 58 100 100 100 97 88 100 100 100 100 100 100 100 87 79 78 80 78 73 68 60 54 49 51 73 70 73 64 46 44 41 32 32 38 53 61 62 51 45 41 40
100 98 96 85 90 95 97 89 78 70 66 68 64 68 73 76 71 66 59 56 52 54 62 54 49 67 59 50 77 70 47 48 37 41 41 52 55 59 53 50 56 62 58
99 94 82 64 58 56 57 60 59 52 50 59 60 56 59 60 60 56 64 61 71 79 74 78 90 77 76 84 70 61 79 74 67 69 86 74 60 64 59 59 68 67 62
70 61 79 72 63 66 67 64 65 62 58 58 54 58 55 58 69 63 77 88 98 88 100 100 100 100 71 64 99 100 100 94 87 75 65 59 62 72 76 71 80 71 72
74 97 100 100 93 79 71 69 65 63 63 57 65 86 57 45 46 85 100 100 100 100 85 73 70 86 100 100 100 100 100 94 81 77 67 68 86 84 86 83 80 72 64
76 96 94 78 94 94 86 83 93 91 70 64 60 85 39 42 66 98 100 100 100 100 100 88 92 99 100 100 100 100 98 90 80 81 73 97 97 96 91 82 71 70 66
68 74 76 87 98 77 64 76 95 100 95 58 42 44 57 71 81 100 100 100 100 100 100 100 100 100 100 100 99 93 89 77 81 80 93 99 95 82 80 86 73 71 73
65 60 63 73 68 61 63 67 74 88 91 62 60 58 68 72 85 92 92 100 100 100 100 100 100 100 100 91 93 85 78 79 84 96 85 94 90 93 91 76 74 80 69
80 72 67 66 69 74 77 82 83 82 81 59 64 70 74 77 77 87 84 81 97 100 100 99 93 96 87 79 78 87 84 84 86 78 87 75 78 75 64 72 76 77 75
86 85 82 74 81 81 81 94 89 77 68 81 87 80 74 98 99 88 86 88 97 97 88 84 81 78 83 84 88 90 98 99 89 88 88 92 82 81 88 77 82 71 62
40 50 58 53 54 59 62 76 81 72 72 84 78 85 86 85 100 97 93 91 88 82 84 91 91 89 91 90 99 99 100 100 100 100 93 89 92 95 86 83 70 67 63
41 38 39 60 62 49 62 88 98 98 94 75 62 69 83 90 99 100 100 98 100 100 100 95 85 96 95 99 100 100 100 100 92 94 93 94 93 83 71 69 70 68 62
74 74 63 58 49 52 52 62 83 96 98 73 49 46 62 91 100 100 100 100 100 90 79 96 99 99 100 100 99 99 97 94 95 88 84 83 75 69 68 68 70 77 64
41 47 50 43 35 39 39 39 45 46 44 46 48 52 58 58 63 69 77 78 86 99 100 100 100 100 97 96 96 85 82 84 84 78 73 70 71 78 75 67 62 49 49
64 55 58 61 68 76 75 71 63 56 51 51 61 78 90 98 99 100 100 100 97 100 100 100 96 92 95 87 82 83 86 82 76 82 81 82 80 79 74 61 53 50 49
82 72 66 74 85 89 91 84 80 82 80 81 86 90 91 97 98 95 94 100 98 95 99 100 100 92 87 84 73 75 83 91 92 94 93 86 78 68 63 57 50 46 36
54 67 85 96 100 100 96 64 53 52 54 62 68 75 78 85 93 93 97 100 99 95 85 78 79 83 80 82 91 94 87 87 96 94 85 78 67 59 52 51 44 30 18
53 52 67 85 93 91 81 73 76 79 81 84 86 89 96 100 100 98 92 82 75 72 74 75 76 80 85 84 87 89 95 89 78 78 72 61 54 49 42 32 22 14 10
61 58 58 62 75 93 97 95 93 92 94 99 100 100 100 100 93 86 72 67 67 67 71 82 92 87 79 82 99 95 84 76 71 63 59 51 41 34 26 17 11 8 5
62 68 73 78 88 93 98 100 100 100 100 100 99 96 87 82 72 66 68 77 81 83 87 94 90 84 95 99 87 78 73 65 61 55 50 41 30 19 13 9 6 5 5
69 68 80 65 73 77 80 95 98 90 90 89 78 65 58 60 73 87 93 83 86 93 96 93 91 99 92 76 73 67 61 56 48 39 33 24 15 12 8 6 5 5 5
76 66 58 73 73 72 73 79 80 71 68 64 61 60 76 89 97 92 92 94 98 98 89 86 93 82 72 68 59 58 51 42 33 25 17 12 10 7 5 4 5 4 3

GFSMW_250_rhum_036.txt.gz
RH
82 100 100 100 61 83 100 90 78 95 100 100 100 100 100 100 100 100 100 100 100 100 100 100 100 100 100 100 100 100 94 85 90 80 77 69 57 53 50 51 45 35 37
77 100 99 99 100 89 100 100 100 100 100 100 84 96 88 100 100 100 100 100 100 100 99 92 96 100 100 95 89 85 86 80 73 66 54 42 41 40 44 40 43 42 48
99 94 100 94 68 100 100 100 94 97 100 100 100 99 93 94 90 85 95 100 100 100 100 98 91 92 82 84 80 72 68 64 62 61 44 41 38 36 34 30 32 44 64
100 100 100 100 100 89 86 63 83 100 100 87 97 83 79 68 97 86 82 71 83 70 69 70 76 77 72 71 67 60 63 56 51 48 46 40 32 35 35 42 53 46 56
99 100 84 99 100 100 100 100 100 96 100 100 87 88 88 79 75 66 78 62 48 47 62 60 72 71 68 61 56 54 74 49 47 42 39 39 34 47 56 67 56 50 46
87 100 100 84 65 88 89 85 100 100 85 76 95 97 96 89 81 77 77 77 74 78 76 78 70 59 57 51 45 64 77 78 73 61 45 53 48 49 49 84 88 75 62
73 92 100 100 100 76 70 95 88 92 95 94 76 56 53 47 47 44 56 58 57 70 76 72 62 62 67 68 86 98 100 85 86 75 96 100 95 92 92 87 77 65 72
62 69 94 100 99 89 67 56 54 52 62 51 46 44 44 43 58 67 81 82 92 89 81 63 61 75 80 82 89 99 100 90 73 85 100 100 98 99 93 86 81 79 76
69 58 58 86 68 76 61 59 58 55 54 48 44 52 60 62 100 72 90 100 99 92 91 100 81 88 79 67 64 64 64 77 94 92 100 100 99 91 92 83 80 74 75
62 55 57 51 54 87 100 100 70 62 58 50 56 53 60 96 77 100 64 89 100 100 100 100 100 84 98 100 100 100 100 100 100 100 100 95 87 82 78 87 85 85 75
73 68 69 72 67 69 57 59 80 100 59 54 52 88 67 83 100 95 70 95 100 100 100 100 100 100 98 98 97 100 100 100 100 99 87 80 80 72 78 76 74 67 56
54 66 57 61 64 68 75 70 82 77 69 53 62 80 91 91 71 74 95 92 93 100 100 100 100 98 100 100 100 100 99 94 92 83 75 83 79 80 75 76 68 67 73
47 36 61 72 74 76 72 70 68 65 67 62 59 89 90 58 79 79 77 74 82 84 91 100 100 92 89 94 99 94 90 83 88 90 87 89 82 84 83 75 76 79 70
56 45 36 34 53 64 68 68 69 68 54 52 48 65 73 68 68 65 70 71 71 80 89 89 90 95 100 98 90 81 85 97 100 94 86 79 87 84 78 79 78 78 71
47 52 44 33 29 30 31 37 38 48 60 62 56 61 70 66 67 68 65 65 62 73 96 93 96 95 89 84 95 98 94 88 82 82 90 92 87 84 86 82 82 78 67
47 47 40 46 52 54 62 60 61 68 72 70 59 57 66 76 75 72 54 43 42 48 57 65 78 87 96 95 92 93 92 97 96 95 89 85 94 85 80 78 74 71 74
42 44 45 40 41 33 30 40 51 48 40 40 44 42 41 41 41 45 47 55 64 77 87 96 100 98 100 99 93 93 91 92 86 80 80 77 75 79 80 67 79 84 82
35 39 42 47 54 57 55 55 51 53 50 49 58 60 57 56 59 63 67 76 83 91 92 94 92 88 86 87 97 89 85 86 81 78 78 82 75 72 78 93 92 82 81
44 43 40 42 45 59 66 64 59 59 76 84 87 78 60 54 54 55 62 69 72 73 73 86 93 93 96 84 83 85 80 73 78 75 76 82 84 91 97 88 84 76 77
52 48 50 55 56 55 56 69 78 91 100 96 87 81 66 62 67 70 75 82 92 98 98 100 99 88 84 92 88 76 76 73 70 74 85 95 96 98 94 83 70 67 58
66 53 58 58 58 52 54 55 56 66 81 92 97 94 90 90 94 98 100 100 100 100 98 89 82 82 91 86 86 87 83 89 89 93 99 100 99 94 86 73 67 50 33
66 64 64 71 63 50 53 53 54 57 66 72 86 97 100 100 100 100 100 100 96 81 73 78 86 82 83 89 96 97 100 99 100 97 93 87 86 81 69 56 41 28 18
62 70 74 86 84 74 65 60 65 84 83 82 86 100 100 100 100 100 95 88 80 76 76 81 81 80 83 97 100 91 90 97 90 84 75 72 68 57 44 32 23 16 11
69 77 67 79 93 94 79 68 70 80 88 84 85 98 98 89 83 78 80 82 77 76 79 78 78 90 95 90 82 83 84 85 74 66 65 59 50 37 26 22 16 12 9
89 79 89 82 89 94 89 72 70 72 69 68 75 77 77 74 73 82 84 84 95 96 93 94 92 91 86 80 79 80 79 71 66 58 53 43 31 24 19 14 11 9 6
96 87 92 81 80 88 100 85 81 79 64 59 64 65 74 73 85 98 93 95 90 90 91 91 92 88 76 68 80 83 67 58 51 47 35 23 17 13 10 9 7 6 5

GFSMW_250_rhum_042.txt.gz
RH
66 86 72 100 100 100 100 100 100 96 100 90 94 100 100 91 93 100 100 90 75 58 56 100 99 100 80 81 100 100 100 100 100 100 100 100 100 92 84 86 78 82 72
53 76 95 100 100 100 100 100 100 86 100 94 100 100 100 100 100 100 100 82 85 61 50 77 100 100 100 100 100 100 100 100 100 100 97 91 91 79 76 71 65 63 57
87 58 79 100 100 100 100 100 100 100 100 100 100 100 100 100 100 97 80 71 54 56 96 100 99 100 100 100 100 95 96 100 95 79 70 76 86 74 65 53 49 48 54
83 65 70 80 87 86 100 100 100 100 100 92 89 100 90 80 68 87 75 64 56 58 66 69 72 67 89 74 57 75 82 81 79 73 62 52 53 50 60 54 44 46 56
56 65 66 77 73 72 72 79 87 90 80 60 63 74 65 59 48 73 86 100 100 100 100 100 100 100 97 82 86 76 59 65 62 54 45 40 50 46 40 54 67 80 74
47 46 49 76 100 100 94 62 49 54 56 52 50 49 47 68 92 98 99 97 89 85 91 84 78 69 57 45 44 44 60 73 61 50 53 60 65 60 65 73 90 76 65
42 44 44 60 90 100 100 86 82 74 47 61 73 86 90 92 99 100 100 91 92 79 75 67 53 48 68 92 75 68 67 73 52 73 82 79 84 82 83 89 77 78 84
32 36 51 48 68 86 98 88 94 100 89 60 89 83 76 56 68 65 59 54 51 46 54 62 83 94 100 100 85 41 49 57 76 91 100 100 100 100 100 100 100 100 100
30 29 44 52 51 50 67 85 80 68 65 64 67 61 62 73 88 74 100 100 100 100 90 75 88 100 100 98 65 77 98 93 84 86 100 100 99 100 100 100 99 93 93
35 35 35 30 49 54 54 57 74 86 98 81 68 76 89 73 85 100 100 100 90 90 100 100 100 100 100 100 100 100 86 90 96 100 100 100 100 100 99 99 97 98 94
31 32 31 36 34 44 47 48 54 61 75 73 77 90 67 42 84 100 100 99 100 100 100 100 100 100 100 99 73 100 100 100 100 100 100 100 100 100 100 100 83 78 64
26 26 27 31 40 37 37 57 57 58 49 61 99 100 99 100 100 100 100 100 100 100 100 100 100 100 100 100 100 100 100 100 100 100 99 89 89 85 63 61 64 79 84
31 25 22 25 33 47 44 42 47 47 40 46 89 98 100 100 99 100 98 100 100 100 100 100 100 100 100 94 100 100 100 100 100 98 72 60 47 48 64 73 77 88 79
42 36 24 20 21 30 47 57 54 43 48 80 92 98 100 94 100 100 100 97 97 93 100 100 100 100 89 100 100 100 100 92 74 65 48 49 72 77 74 94 86 74 82
62 72 37 25 19 22 24 38 53 52 41 70 98 100 100 100 99 100 100 100 100 100 100 100 100 100 100 100 86 61 51 46 46 58 70 71 77 97 89 77 80 80 87
54 95 46 36 28 26 27 23 31 40 43 43 61 100 100 100 100 100 100 100 98 95 80 68 73 89 50 45 56 60 57 57 59 71 75 88 96 85 80 84 78 88 87
44 99 56 38 35 36 34 31 29 28 33 46 79 90 92 98 96 86 76 79 85 65 44 48 60 60 65 78 79 78 73 69 74 78 79 85 87 86 88 77 81 79 72
97 100 72 57 58 38 42 36 32 29 28 36 42 36 37 37 38 38 39 39 38 38 38 38 38 42 47 52 58 66 72 72 76 77 84 80 83 82 80 80 93 91 90
90 100 94 69 54 50 41 44 43 46 54 51 47 46 51 46 48 46 45 44 45 47 45 42 44 54 57 56 56 63 69 76 85 75 75 81 80 78 77 76 84 95 99
90 100 100 84 62 56 45 45 48 50 51 44 48 53 60 60 61 58 76 72 59 60 59 56 62 53 52 57 63 78 78 69 67 78 86 84 78 77 76 90 89 94 83
68 100 100 90 62 70 62 50 37 47 47 50 46 46 48 50 53 56 62 70 80 77 74 69 69 71 74 66 62 66 69 70 72 77 76 79 95 88 82 86 83 82 84
76 100 100 92 68 89 88 60 45 42 41 54 72 67 56 51 53 59 62 57 58 74 85 90 82 76 75 80 87 82 77 77 79 79 84 97 84 81 82 80 86 90 94
84 100 100 87 100 100 100 74 58 59 54 49 59 68 64 56 57 62 67 61 59 67 76 80 79 79 87 87 82 84 81 82 84 83 69 76 79 89 90 89 90 96 91
100 100 100 100 100 100 100 100 92 96 80 59 63 72 73 74 65 59 67 57 61 71 68 81 90 84 82 88 90 86 84 82 79 80 85 77 82 88 95 94 94 86 87
100 100 100 100 100 100 100 100 100 100 98 78 76 77 86 86 74 68 70 62 61 62 67 79 90 93 91 100 100 98 96 88 87 83 80 76 74 70 84 89 90 92 87
100 100 100 100 100 100 98 100 100 96 98 82 79 80 81 87 83 74 62 63 62 61 70 84 96 98 100 100 100 94 93 93 84 79 80 79 78 91 96 97 95 88 64

GFSMW_250_rhum_045.txt.gz
RH
65 58 63 44 45 70 99 100 100 100 100 100 100 100 100 100 96 81 77 67 82 94 98 97 100 91 71 85 72 67 61 72 100 100 100 100 100 100 100 100 98 83 70
57 44 50 67 58 56 75 99 100 100 100 100 100 100 100 98 92 91 78 75 97 97 99 100 76 69 80 100 100 100 100 100 100 100 100 97 88 85 74 66 59 56 50
43 37 49 66 58 67 69 100 100 100 100 100 100 100 100 94 94 83 100 100 100 100 96 81 80 77 94 87 84 90 88 99 83 88 88 70 62 60 56 58 53 48 42
43 45 40 52 62 64 93 100 96 100 100 100 100 100 100 100 100 100 100 93 90 87 77 90 88 100 81 96 100 98 89 96 97 82 58 49 46 50 64 61 49 52 54
29 46 39 43 46 62 68 100 100 100 100 100 100 100 100 100 100 95 91 87 79 71 83 87 100 97 82 97 99 84 76 73 59 52 45 41 45 52 54 37 39 44 52
24 27 46 43 45 62 73 85 89 100 100 100 100 100 100 97 97 87 80 74 70 68 76 89 82 79 81 81 76 63 61 56 50 39 41 47 47 39 40 49 56 54 67
27 26 29 46 43 48 91 92 100 96 80 80 79 78 80 86 82 80 87 76 85 85 78 67 73 79 77 63 48 51 48 49 38 37 50 63 47 58 80 72 70 75 84
28 30 24 30 48 44 56 94 100 100 80 65 73 66 64 71 70 87 76 58 49 51 97 100 75 72 87 97 94 66 98 90 52 59 43 51 65 78 77 93 81 92 100
28 30 28 25 26 46 45 65 96 100 100 100 100 100 86 78 89 70 58 57 75 100 72 55 63 45 33 87 69 73 99 93 99 88 85 82 82 100 100 100 100 100 100
35 32 28 27 24 24 38 48 54 68 83 87 76 88 80 68 56 60 64 78 84 85 75 45 82 99 100 100 99 100 78 96 100 100 100 100 100 100 100 100 100 100 100
43 36 34 26 23 22 24 29 48 46 55 63 74 77 78 85 72 58 56 68 96 98 71 100 100 100 100 100 100 100 100 98 100 80 100 100 100 100 100 100 100 100 87
49 44 46 29 27 23 19 20 30 37 48 51 50 58 60 68 77 67 61 85 99 93 100 99 100 100 100 100 100 100 98 100 95 100 100 100 100 100 100 100 79 60 62
58 52 52 46 29 28 23 21 26 25 36 49 56 68 70 69 67 64 66 100 84 86 97 100 100 100 100 100 100 100 98 72 93 100 100 100 100 100 95 76 55 59 74
52 54 48 47 32 30 31 29 26 28 32 41 48 57 72 88 80 78 89 78 83 100 100 100 100 100 100 100 95 64 85 100 100 100 100 100 100 85 65 66 75 76 83
42 56 52 51 55 52 33 32 30 28 34 41 44 44 56 68 91 85 77 85 72 73 99 92 100 100 100 100 97 100 100 100 100 100 100 90 72 64 72 70 73 91 82
67 62 54 49 80 58 52 28 30 34 30 32 40 46 46 59 85 100 86 99 100 100 86 73 78 98 100 100 100 100 100 100 97 66 66 54 52 57 60 75 83 84 84
85 68 61 56 81 97 82 44 29 30 35 35 31 35 52 69 76 89 99 100 100 100 100 100 100 100 100 100 95 81 59 46 42 47 53 50 52 58 83 85 78 75 77
92 82 65 60 64 94 96 73 39 40 34 41 40 38 59 80 97 100 100 100 100 95 83 66 52 48 44 46 46 48 48 50 52 55 55 55 58 66 70 70 79 76 78
98 87 76 64 62 100 100 100 67 52 45 36 40 44 39 39 44 47 49 51 46 44 41 42 39 39 45 47 43 46 52 61 67 75 79 83 81 78 79 83 86 92 93
100 98 91 85 80 96 100 100 88 72 63 53 44 36 48 51 56 55 57 50 46 43 48 48 49 50 50 51 53 52 51 56 63 70 73 83 91 93 87 85 92 95 93
100 100 100 94 71 84 100 100 100 98 84 78 64 55 49 42 44 40 38 40 42 43 45 44 43 45 51 52 51 51 57 64 70 74 75 84 91 91 100 97 95 100 93
95 99 100 100 95 86 100 100 100 100 100 99 92 68 64 71 60 51 46 42 45 52 58 63 61 60 59 53 52 57 59 65 72 79 86 93 90 95 99 89 89 95 89
100 100 100 100 97 80 91 100 100 100 100 100 100 99 84 86 80 78 75 62 49 55 62 68 68 70 65 67 69 67 60 70 76 75 94 100 100 100 100 96 83 95 97
100 100 100 98 89 83 80 100 100 100 100 100 100 100 100 86 85 89 81 80 78 77 71 64 64 72 71 70 70 79 81 79 80 79 96 97 97 100 100 95 90 87 87
100 100 100 100 100 97 90 100 100 100 100 100 100 95 99 100 92 84 76 84 89 89 80 69 59 68 72 77 95 92 90 80 79 85 98 100 100 100 100 86 69 77 73
100 92 100 100 100 100 100 100 100 100 100 100 100 100 97 100 98 78 70 67 86 96 93 82 61 69 78 98 100 94 89 81 90 100 100 100 100 94 69 67 67 61 58